Dewpoint
45 40 37 27 21 16 9 4 2 -1 2 8 6 4 1 2 7 21 43 50 53 66 69 70 70 70 70 71 71 72 72 72 72 71 72 72 71 72 72 72 72 72 73 72 71 71 70 71 71
42 36 27 25 21 14 7 7 1 4 5 6 5 4 4 11 24 31 42 50 57 59 69 69 70 70 70 71 71 72 72 72 72 71 72 72 71 72 72 72 71 71 72 71 70 70 70 71 70
40 32 27 25 21 17 12 11 8 6 4 6 5 9 9 9 22 37 46 51 58 58 67 69 70 70 70 70 71 72 72 72 71 71 72 71 71 72 72 72 71 71 72 71 69 70 70 70 69
32 27 25 22 19 17 16 16 10 12 12 8 12 12 16 18 27 42 48 52 59 59 65 69 69 70 70 70 71 72 72 72 71 71 72 72 72 72 72 71 71 70 70 70 70 70 70 69 69
25 24 21 20 19 18 17 16 18 18 18 18 19 19 20 28 40 41 48 56 60 64 70 69 69 69 70 69 70 71 72 72 71 72 72 72 72 72 71 71 70 70 70 70 69 69 69 68 68
21 19 15 11 11 10 10 17 17 16 15 16 18 21 24 38 36 34 36 52 61 64 70 70 69 69 69 69 69 70 71 71 71 71 72 72 72 72 71 70 70 70 70 70 69 69 68 68 68
18 16 11 9 8 8 7 10 10 14 14 16 21 20 23 33 34 33 33 39 57 64 68 71 70 69 69 69 69 69 70 71 71 71 71 71 71 71 70 70 70 70 70 70 69 68 68 68 68
12 8 5 5 6 3 8 11 12 15 18 17 16 17 19 25 26 25 26 29 39 62 66 68 70 69 69 69 69 68 69 70 71 71 71 70 70 70 70 70 70 70 70 69 69 68 68 68 68
5 6 -1 -4 -4 -1 8 11 16 14 7 5 5 4 9 17 13 16 18 23 30 38 56 68 69 69 69 68 69 68 68 69 70 70 70 69 69 69 69 69 69 70 69 69 68 68 68 68 67
-3 -2 -2 -3 -4 -5 2 2 4 1 0 -0 -1 3 7 10 10 12 11 14 21 29 35 65 67 68 69 68 69 68 68 68 69 70 70 70 69 69 68 67 68 69 69 68 68 67 67 67 67
1 -3 -2 -3 -4 -1 0 0 1 1 -0 2 5 7 8 9 10 11 9 11 14 16 28 35 67 66 66 67 69 69 68 67 67 68 69 69 68 67 66 67 68 68 68 67 67 67 67 66 64
0 3 5 1 1 1 0 2 2 3 6 8 8 9 9 7 9 10 10 10 11 15 21 28 48 68 68 67 67 68 67 67 67 67 68 67 67 67 66 67 67 67 67 66 65 66 65 64 64
1 1 2 3 3 3 5 5 6 6 5 6 7 7 7 7 9 11 11 11 13 17 22 28 37 67 68 67 65 67 65 65 65 67 68 68 67 67 66 66 66 66 66 65 64 64 64 63 63
6 7 7 6 5 6 5 4 4 5 7 4 4 5 7 9 10 11 13 15 20 21 22 25 30 42 67 66 66 67 65 65 65 65 67 68 67 67 66 66 65 65 65 65 64 63 63 63 62
11 8 8 8 6 4 6 3 3 5 3 6 8 8 7 8 8 10 13 16 16 17 19 25 28 34 48 66 66 65 66 65 64 66 67 68 68 67 66 66 65 65 65 64 64 63 63 62 62
10 10 8 5 2 3 5 3 3 5 7 9 9 11 15 22 29 32 35 35 35 31 22 23 26 26 35 56 65 64 63 64 65 66 68 68 68 68 67 65 65 65 65 64 63 63 62 61 61
7 5 4 -0 2 5 5 4 5 6 7 11 22 27 27 28 30 33 34 34 36 39 39 36 29 31 34 41 63 63 63 64 65 65 65 68 68 68 67 66 65 66 65 64 63 63 63 62 61
5 3 1 3 5 6 8 7 7 8 9 25 27 26 26 27 29 30 32 35 36 39 43 44 44 34 36 40 55 64 64 62 64 65 66 66 68 68 66 66 65 66 65 63 64 63 63 62 61
10 5 6 9 11 9 9 8 7 9 23 26 25 25 26 27 28 29 31 34 36 38 40 41 43 45 39 31 50 60 62 61 63 63 65 66 66 67 65 65 66 66 65 64 64 64 63 62 62
10 11 11 12 12 9 8 7 9 13 25 25 25 26 26 27 27 28 30 32 34 36 38 39 40 41 43 45 43 52 60 61 61 62 62 65 66 66 65 64 65 65 64 65 64 63 63 63 62
10 12 12 13 12 12 11 9 7 24 26 27 27 27 27 27 27 28 29 30 32 33 36 37 39 39 41 44 46 45 49 60 60 61 60 65 66 66 66 64 63 64 63 64 63 62 62 61 62
11 15 14 14 16 13 16 15 16 19 26 27 27 28 27 27 28 28 29 28 29 31 34 37 37 38 40 43 45 49 51 53 59 60 59 64 66 66 66 64 64 63 63 62 63 62 62 61 61
17 18 19 19 18 18 19 15 23 25 27 26 26 27 27 27 28 28 28 29 29 30 33 36 37 38 41 43 47 48 49 52 56 59 58 61 66 65 65 64 65 63 63 63 62 62 62 62 61
21 20 20 20 17 17 17 22 28 27 25 26 27 27 26 27 28 28 28 29 30 31 33 34 36 38 41 44 46 49 51 53 53 58 57 59 64 65 64 64 65 64 63 62 62 62 63 61 62
19 21 15 12 12 13 16 15 26 25 26 26 26 28 27 27 28 28 28 29 31 30 31 33 35 37 40 42 47 51 53 56 58 58 57 58 62 64 64 64 64 64 63 63 63 63 62 62 61
19 18 15 10 13 17 17 18 24 25 27 27 26 27 26 27 28 29 30 30 30 30 30 32 33 36 39 42 46 48 50 53 55 54 57 61 63 63 64 63 63 64 64 63 63 62 63 62 62
20 18 22 22 19 20 20 29 28 27 26 27 26 26 27 27 27 28 30 30 29 30 30 31 33 36 39 41 43 44 45 47 49 50 52 55 54 56 59 63 64 64 64 63 63 63 63 63 62
19 20 19 23 21 15 14 27 27 25 26 26 26 26 27 27 27 28 29 29 29 30 31 32 33 35 37 40 40 41 41 43 45 47 47 48 48 51 51 53 61 62 64 64 63 63 63 62 62
22 22 26 26 25 20 20 24 28 27 27 25 26 27 28 28 27 28 29 29 31 30 31 31 33 34 36 37 37 37 38 39 40 41 43 44 44 44 45 46 47 48 52 58 63 63 63 63 63
20 19 21 20 18 25 26 25 28 28 27 25 25 27 29 29 28 29 29 28 30 30 31 31 32 34 34 36 35 36 36 37 37 37 38 39 40 40 40 41 41 41 40 42 45 48 56 61 62
Wind_Speed
20 16 15 13 8 10 15 19 12 7 3 15 10 7 10 9 7 5 19 23 12 13 17 15 17 15 14 13 14 15 15 17 17 17 16 14 14 12 11 11 11 10 10 10 9 8 6 6 7
16 21 9 9 11 14 17 12 10 18 16 8 7 6 5 4 18 12 21 24 17 4 17 14 12 14 14 13 13 13 16 17 17 17 17 16 14 14 12 11 11 10 8 8 8 7 7 7 8
13 15 9 7 17 18 20 10 10 10 10 7 4 7 8 9 14 9 22 22 16 6 17 15 13 10 11 12 13 12 15 16 17 17 17 17 16 14 13 12 11 10 9 8 8 7 8 8 8
9 8 9 10 19 22 23 19 12 1 3 10 4 8 8 8 4 14 18 20 14 8 13 23 18 9 8 10 11 11 12 15 17 17 18 17 17 16 14 14 12 10 9 9 6 6 9 9 9
8 8 14 21 22 21 20 20 9 11 17 16 14 8 12 10 22 19 16 16 18 12 17 14 19 15 8 10 11 11 11 12 15 17 17 17 18 17 16 15 13 11 9 8 7 8 9 10 9
8 13 15 18 21 18 15 9 8 9 13 15 16 12 3 20 21 19 21 17 12 16 14 13 13 12 10 10 12 11 11 12 14 16 17 17 17 17 17 16 13 11 10 9 9 9 10 9 8
12 13 18 22 24 25 23 13 11 13 11 12 17 11 8 19 15 15 17 17 9 8 13 17 12 10 8 8 10 11 11 12 14 16 16 17 18 18 17 16 15 12 10 10 10 10 10 9 8
6 10 16 17 19 21 20 24 15 9 12 17 15 9 18 10 13 15 17 19 16 5 4 6 12 13 10 9 11 12 13 13 14 15 16 16 16 17 17 16 14 13 12 11 11 11 11 9 9
9 7 13 16 18 15 16 17 18 18 15 16 15 18 20 20 20 16 17 16 16 9 7 5 7 14 14 14 12 12 12 14 13 13 13 14 12 13 15 15 16 14 13 12 12 12 11 11 8
10 13 18 20 18 18 18 16 16 21 22 23 22 20 22 26 24 21 18 19 18 15 11 8 9 11 16 15 16 15 13 12 13 13 13 12 12 15 15 15 18 15 13 12 12 12 13 12 10
16 19 17 18 18 15 18 19 17 20 23 21 24 25 23 22 21 21 20 20 16 19 14 12 12 12 13 12 14 14 14 14 14 16 15 14 13 14 15 12 13 11 12 11 11 10 10 12 11
10 15 17 18 16 16 17 17 19 21 24 21 22 22 21 19 18 19 17 18 18 16 18 19 9 12 12 9 12 15 16 17 16 17 18 16 14 15 14 14 14 13 13 13 14 12 13 14 11
19 19 16 14 16 18 19 19 21 21 19 17 19 18 16 16 17 17 19 19 19 19 19 22 20 11 14 15 16 15 12 16 17 19 20 18 17 15 14 14 15 15 15 13 15 15 15 12 12
18 15 19 21 21 21 18 13 13 22 17 14 19 19 18 16 18 18 19 20 18 18 21 23 24 18 16 17 19 17 16 16 14 18 21 21 16 16 15 15 15 15 15 14 15 13 13 8 9
11 18 22 24 13 7 11 15 14 14 15 15 18 17 17 19 20 20 19 19 19 21 19 20 23 22 15 22 21 20 17 15 18 11 19 21 17 16 16 15 15 15 14 14 14 11 11 11 10
18 19 16 12 8 6 3 17 17 17 17 17 14 14 15 19 25 30 33 34 34 32 22 19 19 23 22 16 20 19 20 19 18 14 11 19 20 16 16 17 16 15 15 15 14 14 13 12 10
19 16 12 16 15 5 11 22 20 15 17 15 14 20 21 24 28 33 34 33 34 35 35 30 20 21 23 20 19 20 22 20 17 18 18 17 20 21 17 15 16 19 16 16 15 15 14 14 13
11 13 15 19 16 17 20 25 20 21 19 10 11 14 18 21 24 29 34 34 34 33 34 32 35 20 15 17 16 19 21 25 19 21 23 23 19 21 20 17 19 19 16 16 16 16 15 13 14
12 15 18 19 18 15 16 24 26 25 8 9 11 16 21 23 24 25 26 31 33 33 32 32 31 33 22 18 16 19 23 26 25 22 24 27 24 22 23 18 11 12 14 15 14 14 16 15 13
13 18 20 20 15 16 20 28 26 23 18 16 16 19 22 25 26 27 27 28 29 33 30 30 31 32 29 24 18 15 20 25 29 22 24 29 30 27 25 24 17 17 15 17 17 17 13 12 16
18 19 19 20 17 20 24 27 17 24 17 17 19 20 23 27 29 29 29 25 28 29 32 28 30 31 31 31 25 22 18 27 29 26 25 25 30 28 28 27 25 20 20 18 19 19 16 16 14
20 17 14 17 18 19 17 26 24 11 12 18 22 24 25 27 27 28 28 27 27 28 27 29 26 30 28 28 28 23 20 21 29 30 26 26 29 29 28 26 23 25 20 21 19 19 19 17 16
16 13 16 21 23 24 24 18 7 20 17 22 22 21 24 26 26 26 28 29 27 25 26 26 25 27 27 27 27 23 24 24 28 32 30 26 28 28 27 24 23 23 22 21 19 18 19 18 15
13 16 20 25 25 23 24 4 4 3 10 16 19 20 25 25 25 24 25 26 24 23 25 26 26 25 23 23 26 26 30 32 30 40 30 29 27 27 28 27 23 21 22 22 20 20 19 20 18
18 16 13 8 12 18 5 18 6 9 12 14 16 17 22 23 23 24 27 26 25 26 27 25 25 25 21 23 27 15 23 20 31 43 32 31 28 26 27 27 21 21 20 19 19 19 20 20 18
8 8 10 11 16 24 24 8 8 11 14 15 17 18 21 23 23 24 26 25 25 27 28 29 26 24 22 22 21 7 10 17 9 11 22 19 18 16 22 24 24 19 19 17 18 17 16 18 16
2 8 4 12 19 20 11 7 7 13 16 20 20 20 20 23 25 25 25 24 28 31 34 32 27 23 20 19 15 16 21 21 19 25 34 15 22 18 12 8 17 18 19 20 19 18 19 18 18
16 11 7 4 5 11 12 4 3 18 18 17 18 19 20 23 25 26 26 27 30 30 30 31 26 21 20 15 12 20 27 23 19 16 29 29 25 27 13 22 10 10 13 11 16 16 17 20 20
11 16 4 3 8 7 16 1 5 8 10 14 15 15 17 21 24 24 25 25 22 28 27 27 23 20 19 14 20 33 31 27 25 26 26 24 24 26 26 24 23 25 19 9 11 14 17 20 20
3 3 3 4 6 7 9 2 4 6 8 10 12 14 14 17 21 22 23 24 23 26 23 24 23 23 20 20 34 37 30 25 23 28 26 22 27 30 26 26 24 22 21 19 16 16 11 10 13
Wind_Direction
302 265 251 277 253 228 268 264 279 69 90 50 14 347 321 309 313 54 50 22 8 120 145 151 145 153 151 148 147 149 152 150 149 147 145 148 147 145 143 146 149 143 143 158 156 163 162 151 135
299 296 264 275 250 269 262 302 36 52 53 37 336 303 257 10 32 27 22 3 5 335 137 153 155 154 157 155 146 151 153 153 151 151 151 153 153 151 152 157 163 163 156 160 164 178 165 153 146
281 280 278 231 241 251 273 9 35 57 63 40 323 42 343 325 47 31 19 359 353 310 129 140 156 161 162 158 150 152 154 158 156 155 156 158 157 157 159 166 168 172 170 169 180 168 166 149 147
267 237 250 262 265 282 299 297 133 222 190 166 184 297 348 39 53 47 23 6 357 357 111 140 152 163 167 165 153 153 155 161 160 159 161 162 161 161 164 171 179 177 175 171 168 162 143 155 154
244 271 262 266 271 270 266 276 335 337 314 316 356 330 313 23 59 33 33 27 2 26 103 130 150 158 179 174 166 160 158 163 163 163 165 166 164 163 167 175 180 181 179 162 157 145 150 155 161
276 255 278 273 277 295 329 21 345 314 311 338 334 339 333 62 42 17 8 19 13 344 122 130 142 161 171 186 176 166 166 170 170 168 170 169 165 165 170 175 182 181 174 166 149 150 154 158 157
267 288 279 288 300 303 302 340 24 12 341 351 358 330 305 59 43 14 360 351 7 0 337 131 154 167 174 191 185 174 173 179 176 174 175 174 171 171 174 176 178 172 176 163 157 155 154 156 159
303 290 277 278 280 280 10 6 26 12 349 343 337 317 312 3 48 5 348 339 330 50 306 312 152 163 185 193 196 183 182 184 181 179 180 181 177 174 175 179 177 174 174 163 161 162 156 158 162
266 259 263 261 276 331 343 357 342 341 317 307 300 300 303 320 358 352 335 328 318 347 306 200 200 173 184 193 189 190 191 189 182 182 183 180 179 177 177 185 178 176 175 167 164 166 162 156 157
239 261 271 299 337 332 326 329 318 313 310 306 304 307 317 329 329 324 318 311 314 309 304 202 214 227 189 199 179 181 190 194 185 184 180 191 204 180 185 188 176 176 170 165 167 169 166 167 166
262 252 284 301 306 309 299 297 306 304 293 296 307 307 304 306 307 304 301 293 299 307 323 317 196 208 231 219 168 181 192 197 192 189 184 197 208 194 201 154 164 163 170 167 165 166 185 197 202
262 262 276 291 299 303 290 299 290 286 288 292 289 289 297 304 315 307 298 304 300 309 320 313 298 171 189 232 285 191 198 194 192 194 189 188 207 205 184 160 172 176 179 186 177 180 202 207 213
271 275 274 292 281 280 284 283 280 281 290 294 291 295 286 287 307 310 310 312 314 314 314 311 307 192 186 202 225 262 225 198 200 189 190 188 202 188 184 186 189 185 173 200 183 182 203 210 180
304 299 289 282 275 267 268 296 309 287 284 314 316 316 310 304 304 306 307 302 303 299 299 299 299 303 192 200 207 236 218 231 205 194 186 188 199 180 192 190 190 180 177 195 187 196 183 187 183
295 288 284 265 248 248 277 274 275 293 298 319 312 302 295 297 302 300 297 289 285 284 275 277 281 285 260 204 205 217 243 214 209 226 183 185 204 186 188 192 195 181 180 197 185 180 188 195 201
271 262 271 149 251 233 244 285 289 304 321 308 301 313 329 354 4 4 352 344 345 335 294 266 271 277 283 272 209 212 226 220 192 201 197 197 194 195 195 195 192 182 182 183 187 179 189 198 219
235 248 236 313 313 319 280 289 295 309 293 300 24 13 0 356 351 349 342 338 335 333 328 325 267 252 268 271 230 219 228 233 181 189 214 204 193 194 201 201 192 176 184 179 185 188 193 195 203
327 292 301 293 301 304 299 295 295 293 285 59 20 3 356 351 345 337 335 334 331 328 333 333 336 294 282 292 259 212 227 234 209 190 201 207 195 192 198 205 196 176 179 184 182 190 192 200 193
298 283 281 287 289 293 288 282 297 294 114 71 21 4 352 340 340 334 336 330 330 325 326 329 329 333 310 275 288 222 222 228 220 203 198 198 201 187 195 210 187 167 180 182 188 193 196 197 183
276 276 274 280 294 310 305 293 291 276 88 56 21 6 349 341 337 335 336 331 324 320 322 324 321 322 321 318 299 294 239 230 224 205 206 192 195 196 194 201 195 189 192 180 194 210 196 191 177
264 271 284 292 305 288 281 288 295 94 83 48 22 3 354 344 339 334 327 326 321 320 320 320 315 313 311 309 303 298 305 248 229 218 211 191 185 187 193 198 203 194 192 191 189 202 202 205 194
276 279 303 296 299 293 311 284 282 204 103 20 5 360 351 344 340 334 329 327 325 319 317 316 312 305 303 304 300 296 296 287 233 222 207 187 181 183 187 193 198 201 198 197 193 197 202 208 198
280 310 291 288 282 284 285 279 16 17 2 356 355 350 351 351 342 336 335 333 324 325 320 318 312 304 303 295 287 291 282 268 276 226 203 194 180 177 179 186 194 200 201 197 198 197 200 209 206
274 286 281 268 261 259 270 32 82 57 342 344 356 357 354 345 346 344 337 333 327 326 325 324 313 309 305 304 295 277 269 264 260 231 203 190 173 171 176 183 191 192 202 201 200 202 201 209 218
237 268 297 283 295 274 108 313 82 59 39 9 359 9 352 349 349 347 342 336 335 335 331 324 318 314 314 306 288 275 269 283 248 238 200 187 175 168 173 179 182 189 198 202 202 203 203 211 217
260 282 272 294 301 299 314 291 127 64 39 17 10 11 353 351 352 349 343 341 338 340 336 330 327 328 321 313 295 348 20 20 35 83 332 126 136 155 157 174 181 183 188 193 202 206 206 202 214
306 229 328 291 290 278 254 96 173 29 11 10 9 3 355 353 354 348 343 343 352 349 343 333 327 326 329 329 311 38 41 40 40 33 47 60 68 49 41 164 165 178 191 189 193 202 202 197 194
244 279 290 276 282 292 288 188 11 2 358 359 6 1 357 351 355 352 348 350 0 350 347 333 335 335 344 339 355 41 42 34 49 57 68 23 30 66 52 36 346 181 171 181 196 208 204 199 206
190 239 271 298 272 284 299 108 19 16 20 356 4 1 2 356 355 351 350 354 357 354 345 342 339 348 6 11 35 47 39 27 39 50 42 62 47 44 45 37 32 36 30 7 228 217 211 213 214
301 350 1 278 273 303 304 294 48 62 38 8 7 3 6 6 357 354 354 355 1 1 353 352 346 7 3 26 42 46 42 37 42 51 52 54 64 52 38 43 39 32 30 22 17 13 347 232 226